�������l�o���
Date,Time,MP-1(��Sv/h),MP-2(��Sv/h),MP-3(��Sv/h),MP-4(��Sv/h),MP-5(��Sv/h),MP-6(��Sv/h),MP-7(��Sv/h),MP-8(��Sv/h),����,����(m/s),���J
2018/04/05,00:00,0.885,1.476,0.916,1.723,1.179,0.487,0.859,0.823,��,8.0,��
2018/04/05,00:10,0.886,1.479,0.919,1.722,1.177,0.486,0.857,0.824,���k��,8.4,��
2018/04/05,00:20,0.886,1.475,0.916,1.723,1.178,0.485,0.858,0.825,��,8.8,��
2018/04/05,00:30,0.888,1.476,0.916,1.722,1.179,0.486,0.857,0.825,��,9.1,��
2018/04/05,00:40,0.885,1.474,0.918,1.723,1.179,0.487,0.857,0.825,��,6.4,��
2018/04/05,00:50,0.885,1.475,0.916,1.724,1.180,0.487,0.858,0.826,��,9.9,��
2018/04/05,01:00,0.883,1.475,0.916,1.726,1.178,0.487,0.858,0.824,���k��,12.1,��
2018/04/05,01:10,0.884,1.472,0.916,1.721,1.179,0.486,0.859,0.826,���k��,10.5,��
2018/04/05,01:20,0.884,1.477,0.918,1.723,1.180,0.486,0.857,0.825,�k��,8.3,��
2018/04/05,01:30,0.885,1.476,0.919,1.726,1.177,0.486,0.858,0.824,�k��,9.1,��
2018/04/05,01:40,0.883,1.475,0.919,1.725,1.180,0.485,0.857,0.825,�k��,8.9,��
2018/04/05,01:50,0.883,1.474,0.916,1.723,1.178,0.486,0.856,0.822,�k��,8.6,��
2018/04/05,02:00,0.883,1.473,0.917,1.724,1.178,0.486,0.858,0.824,�k��,7.4,��
2018/04/05,02:10,0.885,1.473,0.918,1.723,1.179,0.486,0.857,0.825,�k��,6.8,��
2018/04/05,02:20,0.885,1.473,0.918,1.723,1.178,0.485,0.857,0.824,�k��,6.4,��
2018/04/05,02:30,0.883,1.476,0.913,1.725,1.177,0.485,0.858,0.824,�k��,6.1,��
2018/04/05,02:40,0.883,1.472,0.919,1.722,1.179,0.485,0.859,0.824,�k��,5.9,��
2018/04/05,02:50,0.885,1.474,0.917,1.723,1.179,0.486,0.860,0.824,�k��,5.9,��
2018/04/05,03:00,0.882,1.473,0.917,1.720,1.179,0.486,0.859,0.824,�k��,5.7,��
2018/04/05,03:10,0.884,1.473,0.916,1.721,1.175,0.486,0.859,0.823,�k��,5.9,��
2018/04/05,03:20,0.883,1.475,0.917,1.722,1.177,0.484,0.857,0.823,�k��,5.5,��
2018/04/05,03:30,0.881,1.474,0.917,1.719,1.178,0.485,0.856,0.824,�k��,5.5,��
2018/04/05,03:40,0.883,1.474,0.916,1.722,1.175,0.485,0.859,0.824,�k��,5.9,��
2018/04/05,03:50,0.883,1.472,0.916,1.719,1.177,0.484,0.859,0.822,�k��,7.2,��
2018/04/05,04:00,0.881,1.473,0.915,1.720,1.176,0.486,0.860,0.822,�k��,6.3,��
2018/04/05,04:10,0.882,1.472,0.914,1.721,1.177,0.485,0.858,0.822,�k��,5.7,��
2018/04/05,04:20,0.883,1.475,0.914,1.719,1.177,0.484,0.858,0.822,�k��,5.4,��
2018/04/05,04:30,0.883,1.473,0.916,1.721,1.176,0.483,0.856,0.824,�k��,5.0,��
2018/04/05,04:40,0.879,1.472,0.913,1.720,1.175,0.484,0.860,0.822,�k��,4.8,��
2018/04/05,04:50,0.882,1.474,0.914,1.718,1.176,0.484,0.859,0.824,�k��,6.8,��
2018/04/05,05:00,0.881,1.472,0.913,1.722,1.174,0.485,0.857,0.823,�k��,5.8,��
2018/04/05,05:10,0.882,1.471,0.915,1.721,1.176,0.485,0.857,0.821,�k��,5.0,��
2018/04/05,05:20,0.879,1.472,0.911,1.718,1.175,0.483,0.857,0.823,�k��,5.9,��
2018/04/05,05:30,0.881,1.472,0.913,1.722,1.177,0.484,0.857,0.822,�k��,5.9,��
2018/04/05,05:40,0.881,1.471,0.914,1.720,1.174,0.483,0.858,0.823,�k��,5.1,��
2018/04/05,05:50,0.881,1.472,0.914,1.720,1.175,0.483,0.856,0.823,�k�k��,5.2,��
2018/04/05,06:00,0.878,1.471,0.915,1.721,1.175,0.486,0.858,0.822,�k��,5.1,��
2018/04/05,06:10,0.880,1.472,0.913,1.719,1.174,0.484,0.858,0.823,�k��,5.7,��
2018/04/05,06:20,0.881,1.475,0.913,1.718,1.176,0.483,0.858,0.821,�k��,6.7,��
2018/04/05,06:30,0.879,1.472,0.913,1.720,1.177,0.482,0.858,0.823,�k��,7.0,��
2018/04/05,06:40,0.881,1.471,0.913,1.720,1.175,0.483,0.857,0.823,�k��,8.5,��
2018/04/05,06:50,0.881,1.471,0.913,1.719,1.175,0.484,0.857,0.823,�k��,10.5,��
2018/04/05,07:00,0.881,1.474,0.915,1.720,1.177,0.484,0.857,0.822,�k��,10.6,��
2018/04/05,07:10,0.882,1.472,0.914,1.717,1.177,0.484,0.857,0.823,�k��,8.4,��
2018/04/05,07:20,0.882,1.473,0.914,1.720,1.174,0.484,0.859,0.823,�k��,10.5,��
2018/04/05,07:30,0.883,1.475,0.914,1.716,1.173,0.483,0.858,0.823,�k��,9.0,��
2018/04/05,07:40,0.883,1.473,0.913,1.717,1.176,0.484,0.858,0.823,�k��,11.8,��
2018/04/05,07:50,0.880,1.474,0.913,1.718,1.177,0.484,0.858,0.824,�k��,11.6,��
2018/04/05,08:00,0.880,1.474,0.914,1.717,1.179,0.485,0.858,0.822,�k��,10.7,��
2018/04/05,08:10,0.880,1.474,0.915,1.721,1.178,0.482,0.860,0.822,�k��,10.8,��
2018/04/05,08:20,0.882,1.473,0.915,1.722,1.177,0.485,0.858,0.824,�k��,10.0,��
2018/04/05,08:30,0.880,1.471,0.915,1.722,1.177,0.483,0.856,0.824,�k��,8.9,��
2018/04/05,08:40,0.881,1.470,0.915,1.723,1.177,0.483,0.855,0.825,�k��,8.0,��
2018/04/05,08:50,0.882,1.471,0.915,1.724,1.180,0.485,0.857,0.824,�k��,8.5,��
2018/04/05,09:00,0.883,1.473,0.916,1.724,1.178,0.484,0.858,0.825,�k��,6.3,��
2018/04/05,09:10,0.883,1.473,0.917,1.722,1.180,0.485,0.857,0.822,�k��,6.5,��
2018/04/05,09:20,0.885,1.473,0.917,1.723,1.180,0.484,0.857,0.823,�k��,6.1,��
2018/04/05,09:30,0.883,1.474,0.914,1.725,1.182,0.485,0.856,0.823,�k�k��,5.8,��
2018/04/05,09:40,0.884,1.475,0.914,1.720,1.181,0.483,0.858,0.823,�k��,5.0,��
2018/04/05,09:50,0.883,1.475,0.913,1.723,1.181,0.482,0.857,0.822,���k��,4.0,��
2018/04/05,10:00,0.886,1.473,0.920,1.724,1.183,0.483,0.859,0.823,�k��,3.2,��
2018/04/05,10:10,0.884,1.474,0.916,1.724,1.182,0.482,0.856,0.820,�k��,4.7,��
2018/04/05,10:20,0.885,1.475,0.918,1.725,1.182,0.483,0.857,0.822,�k��,5.9,��
2018/04/05,10:30,0.885,1.474,0.920,1.724,1.179,0.484,0.859,0.819,�k�k��,6.9,��
2018/04/05,10:40,0.885,1.470,0.920,1.723,1.181,0.484,0.858,0.822,�k�k��,8.2,��
2018/04/05,10:50,0.885,1.476,0.920,1.727,1.178,0.484,0.859,0.823,�k�k��,6.5,��
2018/04/05,11:00,0.883,1.477,0.918,1.726,1.181,0.484,0.859,0.822,�k�k��,4.1,��
2018/04/05,11:10,0.881,1.476,0.919,1.728,1.179,0.485,0.859,0.820,�k��,6.3,��
2018/04/05,11:20,0.883,1.476,0.918,1.729,1.180,0.484,0.858,0.823,�k��,8.0,��
2018/04/05,11:30,0.882,1.477,0.916,1.726,1.182,0.484,0.859,0.822,�k��,8.2,��
2018/04/05,11:40,0.883,1.477,0.915,1.727,1.182,0.483,0.858,0.822,�k��,6.9,��
2018/04/05,11:50,0.884,1.478,0.915,1.727,1.184,0.483,0.859,0.823,�k��,7.8,��
2018/04/05,12:00,0.884,1.478,0.915,1.728,1.181,0.483,0.857,0.822,���k��,7.3,��
2018/04/05,12:10,0.882,1.479,0.917,1.730,1.181,0.484,0.861,0.821,���k��,7.9,��
2018/04/05,12:20,0.882,1.477,0.915,1.728,1.184,0.484,0.859,0.823,���k��,7.6,��
2018/04/05,12:30,0.884,1.475,0.915,1.729,1.182,0.484,0.857,0.823,���k��,6.0,��
2018/04/05,12:40,0.884,1.475,0.917,1.728,1.182,0.483,0.859,0.821,�k�k��,5.2,��
2018/04/05,12:50,0.883,1.481,0.916,1.728,1.181,0.485,0.860,0.823,�k��,4.7,��
2018/04/05,13:00,0.884,1.479,0.915,1.726,1.184,0.485,0.859,0.823,���k��,3.7,��
2018/04/05,13:10,0.887,1.479,0.915,1.729,1.182,0.485,0.859,0.822,��,2.6,��
2018/04/05,13:20,0.886,1.476,0.917,1.725,1.183,0.485,0.859,0.822,��,2.8,��
2018/04/05,13:30,0.887,1.480,0.915,1.727,1.183,0.487,0.859,0.823,��,2.6,��
2018/04/05,13:40,0.885,1.476,0.915,1.727,1.185,0.487,0.859,0.822,��,2.5,��
2018/04/05,13:50,0.886,1.479,0.915,1.729,1.183,0.486,0.861,0.821,�쓌,3.9,��
2018/04/05,14:00,0.886,1.478,0.916,1.726,1.179,0.485,0.859,0.822,�쓌,6.3,��
2018/04/05,14:10,0.883,1.475,0.916,1.729,1.185,0.484,0.857,0.823,��쓌,7.9,��
2018/04/05,14:20,0.884,1.477,0.916,1.726,1.183,0.485,0.859,0.822,��쓌,6.0,��
2018/04/05,14:30,0.885,1.476,0.916,1.730,1.184,0.485,0.859,0.822,�쓌,6.3,��
2018/04/05,14:40,0.883,1.480,0.916,1.729,1.183,0.486,0.860,0.822,�쓌,6.8,��
2018/04/05,14:50,0.884,1.486,0.917,1.729,1.183,0.487,0.860,0.821,��쓌,6.2,��
2018/04/05,15:00,0.883,1.485,0.918,1.732,1.182,0.486,0.860,0.822,��쓌,7.1,��
2018/04/05,15:10,0.886,1.485,0.916,1.727,1.183,0.487,0.859,0.822,��쓌,7.9,��
2018/04/05,15:20,0.883,1.479,0.917,1.728,1.182,0.486,0.859,0.823,��쓌,8.4,��
2018/04/05,15:30,0.882,1.480,0.917,1.724,1.183,0.488,0.860,0.823,��쓌,8.9,��
2018/04/05,15:40,0.885,1.480,0.916,1.725,1.183,0.487,0.860,0.822,��쓌,9.1,��
2018/04/05,15:50,0.883,1.480,0.917,1.725,1.186,0.488,0.860,0.820,��쓌,10.9,��
2018/04/05,16:00,0.882,1.479,0.917,1.724,1.185,0.487,0.861,0.820,��쓌,9.2,��
2018/04/05,16:10,0.882,1.486,0.917,1.726,1.183,0.489,0.860,0.821,��쓌,10.7,��
2018/04/05,16:20,0.884,1.484,0.918,1.727,1.182,0.487,0.859,0.822,��쓌,11.0,��
2018/04/05,16:30,0.883,1.482,0.916,1.728,1.183,0.489,0.859,0.823,��쓌,11.6,��
2018/04/05,16:40,0.884,1.483,0.918,1.727,1.183,0.487,0.859,0.823,��쓌,11.3,��
2018/04/05,16:50,0.884,1.482,0.918,1.725,1.182,0.487,0.859,0.821,��쓌,9.5,��
2018/04/05,17:00,0.883,1.482,0.919,1.727,1.185,0.488,0.859,0.822,��쓌,10.3,��
2018/04/05,17:10,0.886,1.483,0.918,1.728,1.186,0.489,0.859,0.826,��,11.3,��
2018/04/05,17:20,0.885,1.485,0.918,1.729,1.185,0.489,0.860,0.825,��쓌,11.6,��
2018/04/05,17:30,0.885,1.485,0.922,1.726,1.182,0.489,0.860,0.825,��쓌,10.5,��
2018/04/05,17:40,0.886,1.487,0.921,1.728,1.182,0.489,0.859,0.827,��,10.2,��
2018/04/05,17:50,0.887,1.483,0.920,1.729,1.185,0.489,0.858,0.825,��,9.9,��
2018/04/05,18:00,0.886,1.484,0.920,1.731,1.183,0.489,0.858,0.825,��,9.3,��
2018/04/05,18:10,0.887,1.483,0.919,1.729,1.182,0.489,0.859,0.826,��,8.6,��
2018/04/05,18:20,0.885,1.483,0.922,1.729,1.184,0.487,0.860,0.826,��,6.3,��
2018/04/05,18:30,0.887,1.482,0.922,1.729,1.188,0.490,0.861,0.826,��,7.4,��
2018/04/05,18:40,0.886,1.486,0.921,1.730,1.183,0.488,0.859,0.825,��,6.7,��
2018/04/05,18:50,0.886,1.483,0.920,1.729,1.184,0.489,0.859,0.825,��,7.6,��
2018/04/05,19:00,0.884,1.483,0.920,1.729,1.186,0.489,0.860,0.826,��,7.6,��
2018/04/05,19:10,0.885,1.483,0.920,1.729,1.186,0.490,0.862,0.825,��,7.4,��
2018/04/05,19:20,0.885,1.484,0.921,1.727,1.188,0.488,0.860,0.825,��,8.4,��
2018/04/05,19:30,0.887,1.484,0.919,1.727,1.187,0.488,0.860,0.823,��,7.9,��
2018/04/05,19:40,0.886,1.482,0.922,1.731,1.186,0.488,0.861,0.825,��,6.8,��
2018/04/05,19:50,0.885,1.483,0.921,1.729,1.184,0.489,0.862,0.825,��,8.2,��
2018/04/05,20:00,0.885,1.482,0.920,1.729,1.188,0.489,0.861,0.827,��쓌,7.8,�L
2018/04/05,20:10,0.886,1.484,0.921,1.731,1.187,0.489,0.861,0.825,��쓌,6.0,��
2018/04/05,20:20,0.886,1.481,0.921,1.730,1.187,0.490,0.862,0.825,��,6.8,�L
2018/04/05,20:30,0.885,1.485,0.921,1.729,1.188,0.488,0.860,0.825,��,5.8,�L
2018/04/05,20:40,0.888,1.484,0.921,1.732,1.185,0.489,0.861,0.824,��쐼,3.6,�L
2018/04/05,20:50,0.887,1.482,0.919,1.729,1.188,0.488,0.860,0.825,��,6.1,�L
2018/04/05,21:00,0.887,1.481,0.920,1.730,1.187,0.489,0.862,0.827,��,7.3,��
2018/04/05,21:10,0.886,1.485,0.921,1.729,1.186,0.489,0.862,0.826,��,8.4,��
2018/04/05,21:20,0.885,1.484,0.921,1.730,1.188,0.490,0.861,0.826,��,7.5,��
2018/04/05,21:30,0.885,1.484,0.919,1.727,1.187,0.489,0.861,0.824,��,7.3,��
2018/04/05,21:40,0.887,1.484,0.919,1.729,1.185,0.491,0.861,0.823,��,7.4,��
2018/04/05,21:50,0.885,1.485,0.918,1.731,1.186,0.489,0.860,0.826,��,6.2,��
2018/04/05,22:00,0.886,1.482,0.919,1.729,1.187,0.490,0.860,0.827,��쐼,5.3,�L
2018/04/05,22:10,0.886,1.483,0.918,1.729,1.186,0.489,0.860,0.824,��,5.7,�L
2018/04/05,22:20,0.889,1.482,0.919,1.730,1.185,0.488,0.861,0.825,��,5.0,�L
2018/04/05,22:30,0.886,1.482,0.921,1.730,1.185,0.491,0.860,0.824,��쐼,5.5,�L
2018/04/05,22:40,0.887,1.483,0.920,1.729,1.187,0.489,0.862,0.823,��쐼,4.6,�L
2018/04/05,22:50,0.888,1.481,0.921,1.726,1.184,0.488,0.862,0.824,��,5.4,�L
2018/04/05,23:00,0.885,1.482,0.921,1.729,1.186,0.489,0.860,0.824,��,5.9,�L
2018/04/05,23:10,0.887,1.480,0.920,1.728,1.187,0.488,0.860,0.826,��,5.5,�L
2018/04/05,23:20,0.887,1.483,0.921,1.727,1.186,0.489,0.861,0.826,��,5.8,��
2018/04/05,23:30,0.885,1.482,0.919,1.728,1.185,0.489,0.861,0.826,��,5.2,��
2018/04/05,23:40,0.885,1.483,0.919,1.729,1.185,0.490,0.862,0.825,��,4.0,��
2018/04/05,23:50,0.886,1.484,0.920,1.728,1.188,0.490,0.862,0.825,��,2.3,��
